Flag for U.S.A. Weather past 2 weeks in Santa Cruz, California, U.S.A.

Now
60 °F

Passing clouds.


Feels Like: 60 °F
Forecast: 60 / 72 °F
Wind: 5 mph from Northwest

Location: Watsonville Municipal Airport

Current Time: Jul 22, 2014 at 5:07:30 AM

Latest Report: Jul 22, 2014 at 3:53 AM


Visibility: 10 mi

Pressure: 30.05 "Hg

Humidity: 80%

Dew point: 54 °F

Location of Santa CruzLocation

Historic Weather in Santa Cruz — Graph

°F

Santa Cruz temperature yesterday

Maximum temperature yesterday: 76 °F (at 12:53 PM)
Minimum temperature yesterday: 63 °F (at 11:53 PM)
Average temperature yesterday: 69 °F

Past Weeks' High & Low Weather Summary

 TemperatureHumidityPressure
High77 °F (Jul 20, 2:53 PM)93% (Jul 7, 6:53 AM)30.09 "Hg (Jul 7, 6:53 AM)
Low55 °F (Jul 7, 3:01 AM)48% (Jul 7, 12:53 PM)29.87 "Hg (Jul 14, 4:53 AM)
Average65 °F74%29.99 "Hg
* Reported Jul 7 3:01 AM — Jul 22 3:53 AM, Santa Cruz, Weather by CustomWeather, © 2014

Note: Actual official high and low records may vary slightly from our data, if they occured in-between our weather recording intervals... More about our weather records

Advertising

Santa Cruz weather history for previous 24 hours

 ConditionsComfort  
Time TempWeatherWind HumidityBarometerVisibility
3:53 AM
Jul 22
60 °FPassing clouds.5 mph80%30.05 "Hg10 mi
2:53 AM59 °FClear.No wind84%30.05 "Hg10 mi
1:53 AM61 °FClear.No wind78%30.05 "Hg10 mi
12:53 AM61 °FClear.No wind78%30.05 "Hg10 mi
11:53 PM
Jul 21
63 °FClear.5 mph75%30.04 "Hg10 mi
10:53 PM64 °FClear.No wind73%30.04 "Hg10 mi
9:53 PM64 °FClear.3 mph70%30.04 "Hg10 mi
8:53 PM65 °FSunny.3 mph68%30.03 "Hg10 mi
7:53 PM68 °FSunny.10 mph63%30.03 "Hg10 mi
6:53 PM71 °FSunny.10 mph59%30.03 "Hg10 mi
5:53 PM73 °FSunny.9 mph55%30.03 "Hg10 mi
4:53 PM74 °FPassing clouds.14 mph56%30.05 "Hg10 mi
3:53 PM74 °FPartly sunny.12 mph57%30.07 "Hg10 mi
2:53 PM75 °FPassing clouds.14 mph55%30.07 "Hg10 mi
1:53 PM76 °FSunny.14 mph54%30.08 "Hg10 mi
12:53 PM76 °FScattered clouds.12 mph54%30.08 "Hg10 mi
11:53 AM73 °FOvercast.7 mph59%30.07 "Hg10 mi
10:53 AM71 °FOvercast.7 mph61%30.08 "Hg10 mi
9:53 AM69 °FOvercast.7 mph66%30.06 "Hg10 mi
8:53 AM68 °FOvercast.5 mph70%30.05 "Hg10 mi
7:53 AM67 °FOvercast.No wind73%30.03 "Hg10 mi
6:53 AM67 °FOvercast.3 mph73%30.02 "Hg10 mi
5:53 AM67 °FOvercast.6 mph71%30.00 "Hg10 mi
Weather by CustomWeather, © 2014

See weather overviewHow to use our weather pages